EW8214 Weather Reports


time (UTC)temp
F
wind
direction
speed
knots
gust
knots
rain 1hr
in
rain 24hr
in
rain mn
in
humidity
%
barometer
mb
20260503224559 65 248 0.9 6.1 0.00 0.00 0.00 61 1012.0
20260503224501 65 263 0.9 6.1 0.00 0.00 0.00 61 1011.9
20260503223058 65 257 0.9 4.3 0.00 0.00 0.00 59 1011.9
20260503221557 65 258 0.9 7.0 0.00 0.00 0.00 61 1012.0
20260503214558 65 277 0.9 4.3 0.00 0.00 0.00 62 1012.1
20260503213123 64 272 0.9 7.0 0.00 0.00 0.00 67 1012.3
20260503211618 65 241 1.7 7.8 0.00 0.00 0.00 63 1012.2
20260503210051 64 240 1.7 6.1 0.00 0.00 0.00 63 1012.2
20260503204651 65 244 1.7 7.0 0.00 0.00 0.00 64 1012.3
20260503203049 65 261 0.9 8.7 0.00 0.00 0.00 64 1012.5
20260503201549 64 282 0.9 7.0 0.00 0.00 0.00 63 1012.5
20260503200048 64 252 0.9 8.7 0.00 0.00 0.00 63 1012.6
20260503194546 65 304 0.9 7.8 0.00 0.00 0.00 61 1012.7
20260503193046 65 252 1.7 7.8 0.00 0.00 0.00 61 1012.7
20260503191559 66 243 0.9 6.1 0.00 0.00 0.00 59 1012.6
20260503190045 65 300 0.9 4.3 0.00 0.00 0.00 56 1012.7
20260503184548 65 250 0.0 3.5 0.00 0.00 0.00 59 1012.8
20260503183043 64 285 0.0 2.6 0.00 0.00 0.00 63 1012.9
20260503181533 62 255 0.0 3.5 0.00 0.00 0.00 64 1013.1
20260503180034 61 297 0.0 2.6 0.00 0.00 0.00 66 1013.1
20260503174537 60 302 0.0 3.5 0.00 0.00 0.00 68 1013.1
20260503173026 60 302 0.0 2.6 0.00 0.00 0.00 70 1013.1
20260503171528 60 250 0.0 2.6 0.00 0.00 0.00 75 1013.0
20260503081553 56 249 0.0 0.9 0.00 0.00 0.00 89 1011.4
20260503071556 55 253 0.0 1.7 0.00 0.00 0.00 89 1011.4
20260503054535 54 253 0.0 0.9 0.00 0.00 0.00 93 1010.8
20260503053028 54 253 0.0 0.0 0.00 0.00 0.00 93 1010.8
20260503051541 53 253 0.0 0.0 0.00 0.00 0.00 92 1010.8
20260503050026 54 253 0.0 0.0 0.00 0.00 0.00 90 1010.7
20260503044526 54 253 0.0 0.9 0.00 0.00 0.00 91 1010.5
20260503043025 54 253 0.0 0.0 0.00 0.00 0.00 90 1010.4
20260503041530 55 253 0.0 0.0 0.00 0.00 0.00 90 1010.4
20260503040024 55 253 0.0 0.9 0.00 0.00 0.00 90 1010.4
20260503034524 55 253 0.0 2.6 0.00 0.00 0.00 90 1010.3
20260503033023 55 254 0.0 2.6 0.00 0.00 0.00 89 1010.2
20260503031529 56 252 0.0 3.5 0.00 0.00 0.00 88 1010.2
20260503030028 56 252 0.0 4.3 0.00 0.00 0.00 87 1010.0
20260503024522 57 251 0.0 3.5 0.00 0.00 0.00 86 1009.9
20260503023020 57 238 0.0 3.5 0.00 0.00 0.00 84 1009.7
20260503021519 58 255 0.0 6.1 0.00 0.00 0.00 83 1009.7
20260503020019 58 245 1.7 7.0 0.00 0.00 0.00 82 1009.8
20260503014518 59 256 0.0 6.1 0.00 0.00 0.00 81 1009.8
20260503013029 60 241 0.9 4.3 0.00 0.00 0.00 79 1009.8
20260503011516 60 261 1.7 6.1 0.00 0.00 0.00 78 1009.9
20260503010015 62 246 0.9 5.2 0.00 0.00 0.00 75 1009.9
20260503004514 63 262 0.0 6.1 0.00 0.00 0.00 74 1010.0
20260503003020 63 251 0.0 6.1 0.00 0.00 0.00 74 1010.0
20260503001513 63 309 0.0 5.2 0.00 0.00 0.00 74 1010.0
20260503000012 63 233 0.9 4.3 0.00 0.00 0.00 74 1010.0
20260502234518 63 250 1.7 6.1 0.00 0.00 0.00 74 1010.1
20260502233010 63 250 0.9 4.3 0.00 0.00 0.00 74 1010.1
20260502231507 64 249 0.9 7.0 0.00 0.00 0.00 73 1010.4
20260502230009 64 290 0.0 4.3 0.00 0.00 0.00 72 1010.5